FALCON 9 DEB (53296 NORAD) Tracking and Keplerian Element Data

This shows tracking and keplerian element data for the satellite.

Feedback or suggestion? Click here.




ElementValue
Catalog53296
NameFALCON 9 DEB
Epoch Orbit355
Epoch Day227.56278487
Epoch Year2022
RAAN289.5956
Inclination53.1963
Eccentricity0.0008735
Argument of Perigee113.5236
Mean Anonmoly246.6733
Mean Motion16.43861162
Decay Rate0.08908309
L11 53296U 22086BG 22227.56278487 .08908309 12397-4 30632-3 0 9995
L22 53296 53.1963 289.5956 0008735 113.5236 246.6733 16.43861162 3554



Live tracking and technical data element details for FALCON 9 DEB (NORAD 53296). FALCON 9 DEB can be tracked NOW for your location showing map with azimuth and elevation plus other details from your city location.







IsCatalogInMostPopularTable: catalog: 53296, numindb: 2
Update: records affected: 1



GetName: 53296 FALCON 9 DEB

Hit Count: updated at: Tue, 29 Nov 2022 01:08:13 GMT